[[{"header":{"parameterUnit":"m.s-1","parameterCategory":1,"la1":30.2991,"la2":30.254,"lo1":-89.0895,"lo2":-89.0444,"dy":0.0017,"dx":0.0017,"nx":28,"ny":28,"refTime":"2024-08-02T09:00:00:Z","depth":0,"parameterNumber":2,"parameterNumberName":"U-component_of_WINDS"},"data":[0,0,0,0,0,0,0,0,0,0,0,0,0,0,0,0,0,0,0,0,0,0,0,0,0,0,0,0,0,0,0,0,0,0,0,0,0,0,0,0,0,0,0,0,0,0,0,0,0,0,0,0,0,0,0,0,0,0,5.2033,5.2035,0,5.2213,5.2215,5.2217,5.2159,5.2155,5.2151,5.2147,5.2336,5.2344,5.2353,0,0,0,0,0,0,0,0,0,0,0,0,0,5.1639,5.1647,5.2033,5.2035,5.2037,5.2213,5.2215,5.2218,5.2159,5.2155,5.215,5.2145,5.2333,5.2343,5.2353,0,0,0,0,0,0,0,0,0,0,0,0,0,5.1814,5.1649,5.2032,5.2029,5.2031,5.2212,5.2215,5.2218,5.216,5.2154,5.2149,5.2143,5.2329,5.2342,5.2355,5.2552,0,0,5.2394,5.24,0,0,0,0,0,0,0,0,5.1804,5.1829,5.2027,5.203,5.2032,5.2157,5.2146,5.233,5.2162,5.2111,5.2147,5.214,5.2281,5.2298,5.2345,5.2561,5.2569,5.2396,5.2403,5.2409,5.2413,0,0,0,0,0,0,0,5.1792,5.182,5.2104,5.203,5.2033,5.2019,5.2038,5.218,5.2227,5.2115,5.2111,5.2133,5.2281,5.2332,5.2349,5.2571,5.2395,5.2407,5.2415,5.242,5.2954,5.296,0,0,0,0,0,0,5.1778,5.1811,5.2098,5.211,5.1901,5.2031,5.2052,5.2123,5.2225,5.2235,5.2138,5.213,5.2313,5.2334,5.2355,5.2589,5.2409,5.2421,5.2429,5.2948,5.2956,5.2963,0,0,0,0,0,0,5.177,5.1805,5.2091,5.1959,5.1995,5.2044,5.2125,5.213,5.218,5.2242,5.2251,5.2181,5.2309,5.2337,5.2502,5.2595,5.2427,5.2439,5.294,5.295,5.2959,5.3061,0,0,0,0,0,0,5.1759,5.1802,5.1877,5.1961,5.2002,5.2235,5.2131,5.2137,5.2202,5.2193,5.2285,5.2295,5.2307,5.2483,5.2515,5.261,5.2449,5.2932,5.2945,5.2956,5.305,5.3073,5.3093,0,0,0,0,0,5.1745,5.19,5.1881,5.1916,5.2097,5.2241,5.2264,5.2273,5.221,5.2286,5.2325,5.2292,5.258,5.2501,5.2536,5.2636,5.2926,5.2941,5.2955,5.304,5.3068,5.3092,0,0,0,0,0,0,5.1828,5.1911,5.1891,5.2078,5.2152,5.223,5.2326,5.2304,5.2399,5.2386,5.2395,5.2417,5.2585,5.2628,5.2538,5.283,5.2744,5.2766,5.2796,5.2824,5.2845,5.283,5.246,0,0,0,0,0,5.1867,5.1976,5.2044,5.2202,5.224,5.2277,5.234,5.2341,5.2419,5.245,5.2502,5.258,5.2687,5.2758,5.2861,5.3056,5.3074,5.3142,5.3164,5.3181,5.32,5.3303,5.3333,5.301,5.301,5.301,0,0,5.1951,5.201,5.2079,5.222,5.2278,5.239,5.2304,5.2428,5.2511,5.247,5.2627,5.2668,5.2756,5.2935,5.3017,5.2976,5.3293,5.32,5.3213,5.3222,5.3321,5.3351,5.3378,5.302,5.3018,5.3016,0,0,5.216,5.2217,5.2353,5.2412,5.2499,5.2522,5.2555,5.2636,5.2661,5.2819,5.2789,5.2889,5.3076,5.3138,5.3194,5.3424,5.3396,5.3458,5.357,5.367,5.3696,5.3718,5.3797,5.3826,5.3476,5.3476,5.3477,0,5.2252,5.242,5.2426,5.2551,5.2613,5.2579,5.2716,5.2774,5.2892,5.2935,5.2887,5.3117,5.3174,5.3366,5.3422,5.347,5.3506,5.3446,5.3691,5.3714,5.3735,5.3811,5.3841,5.3483,5.3482,5.3482,5.3481,0,5.2528,5.2645,5.2745,5.2856,5.293,5.3061,5.3086,5.3161,5.3154,5.3182,5.3343,5.3409,5.3523,5.357,5.3567,5.3761,5.3732,5.3688,5.3601,5.3772,5.3843,5.3873,5.3493,5.349,5.3488,5.3487,0,0,5.2794,5.2905,5.2941,5.299,5.3083,5.3174,5.3303,5.3412,5.3474,5.3557,5.3664,5.3821,5.3779,5.3843,5.3846,5.3935,5.4109,5.3879,5.3881,5.3917,5.4324,5.4354,5.4388,5.4091,5.4097,5.4101,5.4315,0,5.3008,5.3232,5.324,5.3446,5.3552,5.352,5.3632,5.3701,5.3731,5.3826,5.3859,5.3968,5.3907,5.3945,5.4031,5.4069,5.419,5.4054,5.419,5.4194,5.4166,5.4426,5.4459,5.4658,5.4344,5.4348,5.4352,0,5.3288,5.3375,5.359,5.3665,5.371,5.3811,5.391,5.4002,5.4079,5.4094,5.4164,5.4154,5.4285,5.4195,5.4374,5.4282,5.4338,5.4365,5.4373,5.4384,5.4282,5.4441,5.4722,5.4751,5.4396,5.4393,5.439,0,5.3456,5.3628,5.3778,5.3821,5.3914,5.3984,5.4026,5.4098,5.4162,5.425,5.4291,5.4394,5.445,5.453,5.4547,5.448,5.4726,5.4638,5.4741,5.4741,5.4793,5.4789,5.5084,5.4834,5.4833,5.4833,5.4832,0,5.3692,5.3824,5.3854,5.3946,5.4092,5.4101,5.4246,5.4283,5.4346,5.4444,5.4425,5.4518,5.4536,5.4633,5.4648,5.4792,5.4819,5.4834,5.4836,5.4834,5.4832,5.4869,5.4855,5.4841,5.4839,5.4837,5.4836,0,5.3904,5.393,5.409,5.4164,5.4185,5.4289,5.4352,5.444,5.4466,5.4591,5.4621,5.4663,5.4775,5.48,5.4936,5.4945,5.5116,5.5106,5.5089,5.5087,5.5187,5.5176,5.5515,5.5558,5.5282,5.5285,5.5287,0,5.4052,5.4152,5.4235,5.4298,5.4343,5.4446,5.4511,5.4523,5.4591,5.4685,5.4762,5.4872,5.496,5.5141,5.5184,5.5286,5.5276,5.5388,5.5292,5.5286,5.5274,5.5267,5.5276,5.5406,5.5409,5.5411,5.5413,0,5.4311,5.4317,5.4411,5.4508,5.4586,5.4664,5.4738,5.4791,5.4813,5.4891,5.5004,5.5073,5.5208,5.5317,5.5419,5.5462,5.5441,5.5443,5.5472,5.547,5.5454,5.546,5.5136,5.5435,5.5433,5.5431,5.543,5.5429,5.4493,5.4579,5.465,5.4754,5.481,5.4879,5.4964,5.5,5.5095,5.5204,5.5207,5.533,5.5403,5.5537,5.5587,5.5683,5.5649,5.5691,5.5701,5.5711,5.5718,5.5441,5.5702,5.5702,5.5701,5.5701,5.57,0,5.4747,5.4791,5.4886,5.4989,5.5071,5.5042,5.5123,5.5192,5.53,5.537,5.5456,5.5585,5.569,5.574,5.5844,5.5911,5.5904,5.5938,5.5932,5.5941,5.5745,5.5708,5.5942,5.5942,5.5942,5.5942,5.5941,5.5941,5.4889,5.5032,5.5047,5.5218,5.5261,5.5379,5.5427,5.549,5.5545,5.569,5.5776,5.5807,5.5869,5.5976,5.607,5.6082,5.612,5.6158,5.6165,5.598,5.5956,5.5932,5.5897,5.6167,5.6167,5.6353,5.6355,5.6357]},{"header":{"parameterUnit":"m.s-1","parameterCategory":1,"la1":30.2991,"la2":30.254,"lo1":-89.0895,"lo2":-89.0444,"dy":0.0017,"dx":0.0017,"nx":28,"ny":28,"refTime":"2024-08-02T09:00:00:Z","depth":0,"parameterNumber":3,"parameterNumberName":"V-component_of_WINDS"},"data":[0,0,0,0,0,0,0,0,0,0,0,0,0,0,0,0,0,0,0,0,0,0,0,0,0,0,0,0,0,0,0,0,0,0,0,0,0,0,0,0,0,0,0,0,0,0,0,0,0,0,0,0,0,0,0,0,0,0,2.8248,2.8249,0,2.8311,2.8312,2.8313,2.8291,2.829,2.8288,2.8287,2.835,2.8353,2.8356,0,0,0,0,0,0,0,0,0,0,0,0,0,2.8105,2.8107,2.8248,2.8249,2.825,2.8311,2.8312,2.8313,2.8291,2.8289,2.8288,2.8286,2.8349,2.8353,2.8356,0,0,0,0,0,0,0,0,0,0,0,0,0,2.8167,2.8108,2.8248,2.8246,2.8247,2.8311,2.8312,2.8313,2.8292,2.8289,2.8287,2.8285,2.8348,2.8352,2.8357,2.8426,0,0,2.837,2.8372,0,0,0,0,0,0,0,0,2.8164,2.8173,2.8246,2.8246,2.8247,2.8291,2.8285,2.8351,2.8292,2.8274,2.8287,2.8284,2.8332,2.8338,2.8354,2.8429,2.8432,2.8371,2.8373,2.8375,2.8377,0,0,0,0,0,0,0,2.816,2.817,2.8273,2.8247,2.8248,2.8241,2.8248,2.8297,2.8314,2.8276,2.8274,2.8282,2.8332,2.835,2.8355,2.8433,2.8371,2.8374,2.8377,2.8379,2.8565,2.8567,0,0,0,0,0,0,2.8155,2.8166,2.8271,2.8275,2.8199,2.8245,2.8253,2.8279,2.8314,2.8317,2.8284,2.8281,2.8343,2.835,2.8358,2.844,2.8375,2.8379,2.8382,2.8563,2.8566,2.8568,0,0,0,0,0,0,2.8152,2.8165,2.8268,2.822,2.8233,2.825,2.828,2.8281,2.8299,2.832,2.8322,2.8299,2.8342,2.8351,2.8409,2.8442,2.8381,2.8386,2.856,2.8564,2.8567,2.8606,0,0,0,0,0,0,2.8148,2.8164,2.8191,2.8221,2.8236,2.832,2.8282,2.8284,2.8307,2.8304,2.8335,2.8338,2.8341,2.8402,2.8413,2.8447,2.8389,2.8558,2.8562,2.8566,2.8602,2.861,2.8617,0,0,0,0,0,2.8143,2.82,2.8193,2.8206,2.827,2.8322,2.833,2.8333,2.831,2.8337,2.835,2.8337,2.8436,2.8408,2.8421,2.8456,2.8555,2.8561,2.8566,2.8598,2.8608,2.8617,0,0,0,0,0,0,2.8173,2.8204,2.8196,2.8264,2.8291,2.8318,2.8352,2.8344,2.8377,2.8372,2.8374,2.8381,2.844,2.8454,2.8422,2.8524,2.8492,2.85,2.8513,2.8523,2.853,2.8526,2.8393,0,0,0,0,0,2.8188,2.8228,2.8252,2.8309,2.8323,2.8335,2.8358,2.8358,2.8385,2.8396,2.8413,2.8439,2.8475,2.85,2.8535,2.8603,2.8609,2.8633,2.8641,2.8648,2.8654,2.869,2.87,2.8585,2.8585,2.8585,0,0,2.8218,2.824,2.8265,2.8316,2.8336,2.8376,2.8345,2.8389,2.8419,2.8402,2.8457,2.8471,2.85,2.8562,2.8591,2.8576,2.8687,2.8654,2.8659,2.8662,2.8696,2.8707,2.8716,2.8589,2.8588,2.8587,0,0,2.8294,2.8315,2.8364,2.8385,2.8416,2.8424,2.8436,2.8464,2.8472,2.8528,2.8516,2.855,2.8614,2.8635,2.8654,2.8736,2.8724,2.8747,2.8788,2.8822,2.8831,2.8839,2.8867,2.8878,2.8754,2.8754,2.8754,0,2.8328,2.8389,2.8391,2.8436,2.8458,2.8445,2.8494,2.8514,2.8555,2.857,2.8552,2.8631,2.865,2.8716,2.8736,2.8752,2.8765,2.8744,2.883,2.8838,2.8846,2.8872,2.8883,2.8756,2.8756,2.8756,2.8755,0,2.8428,2.847,2.8506,2.8546,2.8572,2.8619,2.8627,2.8653,2.865,2.8659,2.8715,2.8737,2.8775,2.8791,2.8789,2.8857,2.8846,2.883,2.8798,2.8859,2.8884,2.8894,2.876,2.8759,2.8758,2.8757,0,0,2.8525,2.8565,2.8578,2.8595,2.8628,2.866,2.8705,2.8743,2.8765,2.8793,2.883,2.8884,2.8868,2.889,2.8889,2.8919,2.8981,2.8899,2.8899,2.8912,2.9056,2.9068,2.908,2.8974,2.8976,2.8977,2.9053,0,2.8603,2.8684,2.8686,2.8759,2.8798,2.8785,2.8824,2.8848,2.8857,2.889,2.8899,2.8937,2.8914,2.8927,2.8956,2.8967,2.901,2.8962,2.9007,2.9009,2.9,2.9093,2.9106,2.9177,2.9063,2.9065,2.9066,0,2.8705,2.8736,2.8813,2.8839,2.8855,2.8891,2.8925,2.8957,2.8982,2.8987,2.901,2.9004,2.9049,2.9016,2.9077,2.9045,2.9063,2.9071,2.9074,2.9078,2.9041,2.9099,2.9199,2.921,2.9081,2.908,2.9079,0,2.8767,2.8828,2.8882,2.8897,2.8929,2.8954,2.8968,2.8991,2.9014,2.9043,2.9057,2.9091,2.911,2.9136,2.9139,2.9115,2.92,2.9167,2.9204,2.9204,2.9222,2.9221,2.9327,2.9235,2.9235,2.9235,2.9235,0,2.8853,2.89,2.891,2.8943,2.8995,2.8997,2.9048,2.906,2.9081,2.9115,2.9106,2.9137,2.914,2.9173,2.9176,2.9225,2.9233,2.9237,2.9237,2.9238,2.9237,2.925,2.9245,2.9238,2.9237,2.9236,2.9236,0,2.8931,2.894,2.8997,2.9022,2.9029,2.9066,2.9087,2.9118,2.9125,2.9169,2.9179,2.9191,2.9228,2.9234,2.9279,2.928,2.9339,2.9334,2.933,2.933,2.9365,2.9361,2.9482,2.9497,2.9397,2.9398,2.9398,0,2.8985,2.9021,2.905,2.9072,2.9088,2.9124,2.9146,2.9149,2.9172,2.9203,2.923,2.9267,2.9296,2.9356,2.9368,2.9402,2.9397,2.9437,2.9402,2.9401,2.9397,2.9394,2.9397,2.9444,2.9445,2.9446,2.9446,0,2.908,2.9082,2.9115,2.915,2.9177,2.9204,2.9229,2.9247,2.9253,2.9279,2.9318,2.9341,2.9385,2.9421,2.9454,2.9467,2.9457,2.9457,2.9467,2.9468,2.9464,2.9465,2.9348,2.9455,2.9454,2.9453,2.9453,2.9452,2.9147,2.9178,2.9203,2.924,2.9259,2.9282,2.9312,2.9323,2.9356,2.9393,2.9392,2.9433,2.9456,2.9499,2.9515,2.9546,2.9533,2.9548,2.9552,2.9555,2.9558,2.9459,2.9552,2.9552,2.9552,2.9552,2.9552,0,2.9241,2.9256,2.929,2.9325,2.9354,2.9342,2.9369,2.9394,2.9431,2.9453,2.9482,2.9525,2.956,2.9574,2.9608,2.963,2.9626,2.9639,2.9637,2.964,2.9568,2.9556,2.9641,2.9641,2.9641,2.9641,2.9641,2.9641,2.9293,2.9344,2.9349,2.9409,2.9423,2.9465,2.9481,2.9502,2.952,2.9569,2.9597,2.9607,2.9625,2.966,2.969,2.9693,2.9706,2.972,2.9721,2.9654,2.9645,2.9636,2.9625,2.9723,2.9723,2.979,2.979,2.9791]}]]